| time (UTC) | temp F | wind direction | speed knots | gust knots | rain 1hr in | rain 24hr in | rain mn in | humidity % | barometer mb |
| 20260503021523 | 55 | 0.0 | 0.0 | 3.91 | 9.22 | 1.70 | 95 | ||
| 20260503020534 | 56 | 164 | 0.0 | 0.9 | 3.89 | 9.22 | 1.63 | 95 | |
| 20260503015523 | 56 | 0.0 | 0.0 | 3.89 | 9.22 | 1.56 | 95 | ||
| 20260503014531 | 57 | 0.0 | 0.0 | 3.92 | 9.21 | 1.50 | 95 | ||
| 20260503013524 | 57 | 134 | 0.0 | 1.7 | 3.92 | 9.21 | 1.44 | 95 | |
| 20260503012532 | 57 | 183 | 0.0 | 1.7 | 3.89 | 9.21 | 1.37 | 95 | |
| 20260503011543 | 57 | 130 | 0.9 | 2.6 | 3.90 | 9.21 | 1.30 | 94 | |
| 20260503010532 | 57 | 141 | 0.9 | 2.6 | 3.94 | 9.21 | 1.24 | 94 | |
| 20260503005545 | 58 | 157 | 1.7 | 4.3 | 3.94 | 9.20 | 1.17 | 94 | |
| 20260503004531 | 58 | 134 | 1.7 | 3.5 | 3.90 | 9.20 | 1.11 | 94 | |
| 20260503003523 | 58 | 130 | 1.7 | 4.3 | 3.91 | 9.20 | 1.04 | 94 | |
| 20260503002531 | 58 | 150 | 1.7 | 3.5 | 3.95 | 9.20 | 9.84 | 93 | |
| 20260503001547 | 59 | 117 | 1.7 | 5.2 | 3.95 | 9.19 | 9.18 | 93 | |
| 20260503000523 | 59 | 125 | 1.7 | 4.3 | 3.91 | 9.19 | 8.52 | 93 | |
| 20260502235523 | 59 | 146 | 0.0 | 1.7 | 3.91 | 9.19 | 7.85 | 93 | |
| 20260502234534 | 59 | 128 | 0.9 | 2.6 | 3.95 | 9.19 | 7.23 | 93 | |
| 20260502233519 | 59 | 142 | 0.9 | 2.6 | 3.94 | 9.18 | 6.55 | 93 | |
| 20260502232532 | 59 | 157 | 0.0 | 1.7 | 3.90 | 9.18 | 5.89 | 93 | |
| 20260502231523 | 59 | 133 | 0.9 | 1.7 | 3.90 | 9.18 | 5.23 | 93 | |
| 20260502230532 | 59 | 125 | 0.9 | 1.7 | 3.94 | 9.18 | 4.60 | 93 | |
| 20260502225523 | 59 | 133 | 0.0 | 1.7 | 3.94 | 9.17 | 3.94 | 93 | |
| 20260502224534 | 59 | 12 | 0.0 | 1.7 | 3.90 | 9.17 | 3.27 | 92 | |
| 20260502223523 | 59 | 129 | 0.9 | 1.7 | 3.90 | 9.17 | 2.61 | 92 | |
| 20260502222533 | 59 | 70 | 0.9 | 2.6 | 3.92 | 9.17 | 1.98 | 92 | |
| 20260502221523 | 59 | 38 | 0.9 | 3.5 | 3.92 | 9.16 | 1.32 | 92 | |
| 20260502220551 | 59 | 64 | 1.7 | 4.3 | 3.89 | 9.16 | 6.62 | 93 | |
| 20260502215544 | 60 | 122 | 0.9 | 3.5 | 3.89 | 9.16 | 9.16 | 93 | |
| 20260502214531 | 60 | 9 | 2.6 | 4.3 | 3.92 | 9.15 | 9.09 | 94 | |
| 20260502213523 | 60 | 360 | 1.7 | 2.6 | 3.91 | 9.15 | 9.03 | 94 | |
| 20260502212531 | 60 | 303 | 1.7 | 3.5 | 3.90 | 9.15 | 8.96 | 94 | |
| 20260502211523 | 59 | 294 | 3.5 | 8.7 | 3.90 | 9.15 | 8.90 | 95 | |
| 20260502210531 | 59 | 153 | 0.0 | 1.7 | 3.94 | 9.15 | 8.83 | 95 | |
| 20260502205523 | 59 | 155 | 0.9 | 1.7 | 3.92 | 9.14 | 8.77 | 95 | |
| 20260502204534 | 60 | 202 | 0.0 | 1.7 | 3.88 | 9.14 | 8.70 | 94 | |
| 20260502203523 | 60 | 160 | 0.0 | 1.7 | 3.89 | 9.14 | 8.64 | 94 | |
| 20260502202526 | 60 | 229 | 0.0 | 0.9 | 3.91 | 9.13 | 8.57 | 93 | |
| 20260502201523 | 60 | 156 | 0.0 | 1.7 | 3.91 | 9.13 | 8.51 | 93 | |
| 20260502200531 | 60 | 166 | 0.9 | 1.7 | 3.88 | 9.13 | 8.44 | 92 | |
| 20260502195524 | 61 | 304 | 0.0 | 0.9 | 3.89 | 9.13 | 8.37 | 92 | |
| 20260502194532 | 61 | 202 | 0.9 | 1.7 | 3.94 | 9.12 | 8.31 | 91 | |
| 20260502193544 | 61 | 171 | 0.9 | 1.7 | 3.93 | 9.12 | 8.25 | 90 | |
| 20260502192520 | 61 | 136 | 1.7 | 3.5 | 3.87 | 9.12 | 8.18 | 89 | |
| 20260502191523 | 61 | 146 | 2.6 | 3.5 | 3.85 | 9.12 | 8.11 | 88 | |
| 20260502190531 | 61 | 136 | 1.7 | 3.5 | 3.87 | 9.11 | 8.05 | 86 | |
| 20260502185523 | 62 | 159 | 2.6 | 3.5 | 3.86 | 9.11 | 7.98 | 82 | |
| 20260502184554 | 63 | 209 | 3.5 | 13.9 | 3.81 | 9.11 | 7.92 | 75 | |
| 20260502183528 | 69 | 180 | 5.2 | 13.0 | 3.80 | 9.11 | 7.85 | 59 | |
| 20260502182531 | 70 | 143 | 3.5 | 7.8 | 3.84 | 9.11 | 7.79 | 57 | |
| 20260502181523 | 72 | 133 | 3.5 | 10.4 | 3.81 | 9.11 | 7.73 | 55 | |
| 20260502180531 | 75 | 197 | 0.9 | 1.7 | 3.77 | 9.11 | 7.66 | 52 | |
| 20260502163523 | 79 | 194 | 1.7 | 4.3 | 3.77 | 9.12 | 7.09 | 46 | |
| 20260502162556 | 78 | 237 | 1.7 | 3.5 | 3.78 | 9.12 | 7.03 | 47 | |
| 20260502161550 | 79 | 293 | 2.6 | 4.3 | 3.77 | 9.12 | 6.97 | 45 | |
| 20260502160532 | 78 | 209 | 2.6 | 6.1 | 3.72 | 9.12 | 6.90 | 46 | |
| 20260502151523 | 79 | 196 | 4.3 | 8.7 | 3.75 | 9.13 | 6.59 | 46 | |
| 20260502150531 | 78 | 209 | 3.5 | 10.4 | 3.79 | 9.13 | 6.53 | 46 | |
| 20260502130531 | 75 | 265 | 1.7 | 5.2 | 3.84 | 9.12 | 5.77 | 54 | |
| 20260502123543 | 76 | 230 | 2.6 | 6.1 | 3.81 | 9.12 | 5.58 | 53 | |
| 20260502122613 | 76 | 225 | 1.7 | 4.3 | 3.85 | 9.12 | 5.52 | 53 | |
| 20260502121526 | 73 | 294 | 4.3 | 8.7 | 3.86 | 9.11 | 5.45 | 57 | |
| 20260502120527 | 74 | 212 | 2.6 | 7.0 | 3.84 | 9.11 | 5.39 | 55 | |
| 20260502115524 | 74 | 243 | 1.7 | 4.3 | 3.84 | 9.10 | 5.32 | 55 | |
| 20260502114531 | 73 | 233 | 2.6 | 7.8 | 3.87 | 9.10 | 5.26 | 56 | |
| 20260502113546 | 73 | 292 | 5.2 | 9.6 | 3.86 | 9.10 | 5.20 | 57 | |
| 20260502112532 | 74 | 229 | 2.6 | 7.0 | 3.83 | 9.10 | 5.13 | 54 | |
| 20260502111525 | 75 | 245 | 2.6 | 6.1 | 3.81 | 9.10 | 5.06 | 54 | |
| 20260502110522 | 74 | 227 | 3.5 | 7.8 | 3.84 | 9.10 | 5.00 | 55 | |
| 20260502105523 | 73 | 193 | 5.2 | 8.7 | 3.84 | 9.09 | 4.94 | 55 | |
| 20260502104532 | 74 | 196 | 3.5 | 6.1 | 3.80 | 9.09 | 4.87 | 55 | |
| 20260502103524 | 74 | 206 | 3.5 | 6.1 | 3.80 | 9.09 | 4.81 | 54 | |
| 20260502102531 | 73 | 200 | 3.5 | 6.1 | 3.83 | 9.09 | 4.75 | 55 | |
| 20260502101524 | 74 | 190 | 3.5 | 7.0 | 3.83 | 9.09 | 4.68 | 54 | |
| 20260502100531 | 73 | 183 | 5.2 | 8.7 | 3.78 | 9.09 | 4.62 | 54 | |
| 20260502090553 | 71 | 185 | 2.6 | 7.0 | 3.80 | 9.09 | 4.24 | 57 | |
| 20260502071524 | 64 | 196 | 2.6 | 6.1 | 3.79 | 9.10 | 3.54 | 60 | |
| 20260502070535 | 64 | 214 | 2.6 | 5.2 | 3.83 | 9.10 | 3.48 | 59 | |
| 20260502065524 | 63 | 202 | 3.5 | 8.7 | 3.84 | 9.10 | 3.42 | 57 | |
| 20260502064541 | 63 | 203 | 2.6 | 7.0 | 3.81 | 9.10 | 3.36 | 56 | |
| 20260502063524 | 62 | 187 | 2.6 | 5.2 | 3.81 | 9.10 | 3.29 | 56 | |
| 20260502062522 | 60 | 208 | 2.6 | 5.2 | 3.84 | 9.10 | 3.23 | 57 | |
| 20260502061525 | 61 | 197 | 1.7 | 6.1 | 3.85 | 9.10 | 3.17 | 55 | |
| 20260502060531 | 60 | 183 | 3.5 | 6.1 | 3.81 | 9.10 | 3.10 | 55 | |
| 20260502055519 | 58 | 184 | 3.5 | 5.2 | 3.81 | 9.10 | 3.04 | 59 | |
| 20260502054533 | 57 | 200 | 2.6 | 6.1 | 3.85 | 9.10 | 2.97 | 61 | |
| 20260502053525 | 56 | 191 | 2.6 | 5.2 | 3.85 | 9.09 | 2.91 | 61 | |
| 20260502052553 | 57 | 191 | 2.6 | 3.5 | 3.81 | 9.09 | 2.84 | 60 | |
| 20260502051523 | 57 | 220 | 0.0 | 1.7 | 3.81 | 9.09 | 2.78 | 57 | |
| 20260502050531 | 57 | 201 | 1.7 | 3.5 | 3.85 | 9.09 | 2.72 | 56 | |
| 20260502045528 | 57 | 196 | 1.7 | 4.3 | 3.85 | 9.09 | 2.65 | 56 | |
| 20260502044554 | 57 | 193 | 3.5 | 6.1 | 3.80 | 9.09 | 2.59 | 56 | |
| 20260502043523 | 57 | 178 | 2.6 | 4.3 | 3.80 | 9.09 | 2.52 | 56 | |
| 20260502042531 | 57 | 208 | 2.6 | 5.2 | 3.84 | 9.09 | 2.46 | 54 | |
| 20260502041523 | 56 | 212 | 3.5 | 6.1 | 3.84 | 9.09 | 2.40 | 55 | |
| 20260502040532 | 55 | 188 | 1.7 | 3.5 | 3.80 | 9.08 | 2.33 | 57 | |
| 20260502035523 | 52 | 195 | 0.9 | 2.6 | 3.79 | 9.08 | 2.27 | 63 | |
| 20260502034532 | 51 | 165 | 0.9 | 1.7 | 3.84 | 9.08 | 2.21 | 68 | |
| 20260502033545 | 49 | 148 | 0.0 | 1.7 | 3.84 | 9.08 | 2.14 | 72 | |
| 20260502032531 | 49 | 0.0 | 0.9 | 3.80 | 9.08 | 2.08 | 74 | ||
| 20260502031523 | 48 | 98 | 0.0 | 0.9 | 3.79 | 9.08 | 2.01 | 75 | |
| 20260502030531 | 48 | 0.0 | 0.0 | 3.83 | 9.08 | 1.95 | 75 | ||
| 20260502025523 | 48 | 163 | 0.9 | 1.7 | 3.84 | 9.08 | 1.89 | 76 | |
| 20260502024525 | 47 | 171 | 0.9 | 1.7 | 3.79 | 9.08 | 1.82 | 77 | |
| 20260502023523 | 47 | 0.0 | 0.9 | 3.79 | 9.08 | 1.76 | 79 | ||
| 20260502022536 | 47 | 137 | 0.0 | 0.9 | 3.81 | 9.08 | 1.70 | 78 |